Tracking 19905 objects as of 17-Oct-2019
HD Live streaming from Space Station
objects crossing your sky now

H-2A R/B

Track H-2A R/B now!


NORAD ID: 42966
Int'l Code: 2017-062B
Perigee: 371.4 km
Apogee: 35,030.0 km
Inclination: 31.5 °
Period: 619.5 minutes
Semi major axis: 24071 km
RCS: Unknown
Launch date: October 9, 2017
Source: Japan (JPN)
Launch site: TANEGASHIMA SPACE CENTER (TNSTA)

Note: This is a ROCKET BODY
aabbcc
Your satellite tracking list
Your tracking list is empty




NASA's NSSDC Master Catalog

Two Line Element Set (TLE):
1 42966U 17062B   19288.06271898 -.00000031 +00000-0 +41557-4 0  9993
2 42966 031.4872 120.8524 7199039 225.8114 046.2967 02.32457561017037
Source of the keplerian elements: AFSPC